Regional Weather Roundup
Issued by NWS Green Bay, WI

Home | Current Version | Previous Version | Graphics & Text | Print | Product List | Glossary Off
Versions: 1 2 3 4 5 6 7 8 9 10 11 12 13 14 15 16 17 18 19 20 21 22 23 24 25 26 27 28 29 30 31 32 33 34 35 36 37 38 39 40 41 42 43 44 45 46 47 48 49 50

000
ASUS43 KGRB 220911
RWRGRB

NORTH-CENTRAL AND NORTHEAST WISCONSIN REGIONAL WEATHER ROUNDUP
NATIONAL WEATHER SERVICE GREEN BAY WI
400 AM CDT SAT JUL 22 2017

WIZ005-009-010>012-018-019-221000-
NORTH CENTRAL WISCONSIN

CITY           SKY/WX    TMP DP  RH WIND       PRES   REMARKS
IRONWOOD       CLOUDY    65  64  97 SW3       29.82S FOG
MANITOWISH WTR CLOUDY    65  65 100 CALM      29.83R
ARBOR VITAE    CLOUDY    67  65  94 CALM      29.82R
EAGLE RIVER    PTCLDY    65  60  84 CALM      29.82S
LAND O LAKES   CLOUDY    63  62  96 CALM      29.85R
RHINELANDER    PTCLDY    64  61  90 SE3       29.82F
PHILLIPS       CLOUDY    64  64 100 CALM      29.80S
ANTIGO         MOCLDY    62  60  94 CALM      29.84S
TOMAHAWK         N/A     64  62  94 CALM      29.82R
MERRILL        CLOUDY    64  63  94 SE5       29.80F
$$

WIZ013-073-221000-
NORTHEAST WISCONSIN

CITY           SKY/WX    TMP DP  RH WIND       PRES   REMARKS
IRON MOUNTAIN  MOCLDY    64  61  90 SE6       29.82S
MARINETTE      CLOUDY    70  61  73 SW7       29.83R
OCONTO         CLOUDY    68  61  76 CALM      29.82S
$$

WIZ017-030-035>037-045-221000-
CENTRAL WISCONSIN

CITY           SKY/WX    TMP DP  RH WIND       PRES   REMARKS
MEDFORD        CLOUDY    65  65  98 SE3       29.81S FOG
WAUSAU         CLOUDY    65  64  97 SE6       29.79F
MOSINEE        CLOUDY    64  64 100 E6        29.82F FOG
MARSHFIELD     CLOUDY    67  66  97 SE6       29.78F FOG
WISC RAPIDS    CLOUDY    68  67  96 S7        29.80F
STEVENS POINT  CLOUDY    65  65 100 SE6       29.81F
WAUPACA        CLOUDY    68  65  90 CALM      29.82R
SHAWANO        CLOUDY    69  62  81 S3        29.84R
CLINTONVILLE   CLOUDY    68  61  77 CALM      29.83R
WAUTOMA        CLOUDY    66  64  93 CALM      29.80F
$$

WIZ038-039-048-051-221000-
FOX VALLEY

CITY           SKY/WX    TMP DP  RH WIND       PRES   REMARKS
NWS GREEN BAY  CLOUDY    68  62  81 SE5       29.80F
APPLETON       CLOUDY    66  55  68 SE6       29.80F
OSHKOSH        CLOUDY    66  61  84 SE5       29.78F
FOND DU LAC    CLOUDY    65  60  84 S5        29.79F
$$

WIZ022-050-052-221000-
EAST CENTRAL WISCONSIN

CITY           SKY/WX    TMP DP  RH WIND       PRES   REMARKS
EPHRAIM        CLOUDY    67  62  85 CALM      29.83R
WASHINGTON ISL CLOUDY    67  62  83 CALM      29.86R
STURGEON BAY     N/A     67  64  90 S5        29.82R
MANITOWOC      CLOUDY    68  63  84 E7        29.81F
SHEBOYGAN      CLOUDY    65  64  97 E5        29.80F
$$

LMZ563-521-522-541>543-221000-
LAKESHORE

STATION/POSITION TIME  TEMP    WIND        PRES    VSBY  WAVE
                       AIR SEA DIR/SP/G                  HT/PER
                 (UTC) (F)     (DEG/KT/KT) (MB)    (MI)  (FT/S)
SHEBOYGAN LKSHOR 0900   67      80/  8/  9 1008.4F
KEWAUNEE LKSHORE 0848   68     190/  5/  7 1009.3F
NORTHPORT PIER   0840   69      CALM  /  4 1010.5R
N MID LAKE BUOY  0850   68 66  230/  4/  6 1011.4R         1/ 3
S GREEN BAY BUOY 0900   70 73  200/  8/ 10 1009.5
SISTER BAY LKSHO 0902   69      70/  1/  3   N/A
CHAMBERS ISLAND  0840   70     190/  4/ 11 1009.5R
MENOMINEE LKSHOR 0848   71     210/  8/ 12 1009.8R
$$




USA.gov is the U.S. government's official web portal to all federal, state and local government web resources and services.